Powrót do katalogu

IRIDIUM 166

AktywnyŁącznośćPO
NORAD 43570·PAYLOAD·🇺🇸 United States

Wystrzelony Jul 25, 2018 z Vandenberg Space Force Base

Loading…

Następne Przeloty (najbliższe 24 godziny)

TLE

ŚwieżeSource: CelesTrak SupGP

Epoka: Sep 14, 2026, 21:50 UTC

1 43570C 18061B   26257.91006944 -.00001720  00000+0 -61503-3 0  2576
2 43570  86.4012  19.2220 0002152  95.1797  71.4444 14.34219674    12

Śledź IRIDIUM 166 w czasie rzeczywistym z AllMySat

Download on the App Store